Temp
23 22 21 22 22 22 22 22 23 23 23 23 24 24 24 24 24 24 23 23 23 23 23 23 23 23 23 23 23 23 23 22 21 23 23 24 25 25 25 25 25 25 24
22 22 22 23 22 22 22 23 23 23 23 24 24 24 24 25 24 24 24 24 24 23 23 23 23 23 23 23 23 23 23 23 22 21 23 23 24 24 24 24 25 24 24
22 22 22 22 22 22 23 23 23 23 23 23 24 24 24 24 24 25 24 24 23 23 23 23 23 23 23 23 23 23 23 23 22 21 21 22 23 23 23 24 24 24 24
21 21 22 22 22 23 23 23 23 23 23 24 24 24 24 24 24 24 24 24 23 23 23 23 23 23 23 23 23 23 23 22 22 21 20 21 22 23 22 22 23 24 24
21 21 21 21 21 22 22 23 23 23 23 23 24 24 24 24 24 23 23 23 23 23 23 23 23 23 23 23 23 23 23 22 22 21 20 20 20 21 21 22 22 23 23
21 21 21 23 22 22 22 23 23 23 23 23 23 24 24 23 24 24 23 23 22 22 23 23 23 23 23 23 23 23 23 23 22 20 20 20 21 21 21 21 20 20 21
21 21 21 23 20 21 22 22 22 23 23 23 23 24 24 24 24 24 21 21 22 21 23 23 23 23 23 23 23 23 23 23 21 20 19 20 19 19 19 19 19 19 19
21 21 21 22 22 21 21 22 23 22 23 23 23 23 23 24 24 24 23 22 22 20 23 23 22 23 22 22 22 22 21 20 20 19 19 19 18 18 18 18 18 18 18
21 21 22 22 23 21 21 22 23 22 22 23 23 23 23 23 24 23 23 23 22 22 22 22 22 21 21 21 21 20 19 19 19 19 19 18 17 17 17 17 17 17 18
21 21 22 22 22 23 23 23 23 23 23 23 23 23 24 24 24 23 23 22 22 21 21 20 20 20 20 20 20 20 19 18 18 18 18 17 16 16 15 15 16 16 17
22 21 21 21 22 23 24 23 23 23 23 22 23 23 23 23 22 22 22 21 21 20 19 19 19 19 19 19 19 19 19 18 18 17 16 15 15 14 15 14 14 15 15
22 22 22 22 22 23 23 22 22 22 21 21 21 20 21 21 21 21 21 20 20 19 19 18 18 18 18 18 18 19 19 18 16 14 14 13 13 14 14 14 13 14 13
22 22 22 22 22 22 23 22 22 21 20 19 19 19 19 19 19 19 19 19 18 18 18 18 17 17 17 17 18 18 17 16 14 14 14 14 14 14 14 14 13 13 13
21 22 22 21 21 22 22 22 21 20 20 19 19 18 18 18 19 19 19 18 18 17 16 16 16 16 16 17 17 16 16 16 15 15 14 14 15 15 15 14 14 14 14
20 21 20 20 19 19 19 19 20 20 21 19 18 20 18 17 19 19 19 18 17 16 16 15 15 14 15 15 15 15 16 16 15 15 15 15 15 15 14 14 14 14 13
20 19 19 18 19 18 17 18 19 19 20 21 21 21 20 21 19 18 18 17 17 16 16 14 14 15 15 16 15 15 15 15 15 15 15 15 15 14 14 14 13 14 14
19 19 18 18 19 18 19 17 16 17 18 19 20 20 20 20 19 18 18 17 16 16 16 16 16 16 16 16 16 16 16 16 15 15 15 15 14 14 14 14 14 14 14
19 19 18 17 19 22 21 17 17 17 16 17 18 19 19 19 19 18 18 16 15 15 16 16 16 17 17 17 17 17 16 16 16 15 15 14 14 14 14 14 14 13 14
19 18 18 19 20 20 16 16 18 18 17 17 16 17 18 18 18 17 17 17 16 15 15 16 16 17 17 17 17 17 17 16 16 15 15 15 15 15 14 14 13 14 14
19 20 18 17 18 17 16 17 18 18 17 16 16 16 16 16 15 16 16 16 16 16 16 16 17 17 17 18 18 17 17 16 16 15 15 15 16 15 15 14 14 14 14
18 18 17 17 17 16 16 17 17 17 16 17 17 18 18 18 16 16 16 16 16 16 16 16 17 17 17 17 17 17 17 17 16 17 16 16 15 15 15 15 14 14 14
18 17 17 17 17 16 16 17 18 17 17 16 16 17 17 16 15 15 16 17 17 17 17 17 17 18 18 18 18 18 18 18 18 17 17 16 16 16 15 15 15 14 14
16 16 16 16 16 17 17 17 17 17 18 18 17 17 15 15 16 17 17 17 17 17 17 17 17 18 18 19 19 19 19 19 19 19 18 17 17 17 16 16 15 15 15
17 16 16 16 16 16 17 17 18 18 18 17 18 18 18 18 18 18 19 18 18 18 18 18 18 19 19 19 19 19 19 19 18 18 18 18 18 18 17 17 15 16 15
16 16 16 16 16 16 16 17 17 18 18 18 18 19 20 19 19 19 20 19 19 19 19 19 19 19 19 19 19 20 20 20 20 20 19 19 18 18 17 17 16 16 16
16 16 16 16 16 16 18 18 18 18 18 19 20 20 20 20 20 20 20 19 20 19 19 19 19 19 19 19 19 19 20 20 20 20 20 19 19 18 18 18 17 16 16
Height
769 777 782 788 794 798 802 807 811 815 819 822 823 826 828 831 833 835 837 838 840 841 842 842 843 845 845 845 846 846 846 846 845 843 841 841 840 838 837 837 837 837 835
764 770 776 781 788 793 797 802 806 810 814 817 820 822 823 826 829 831 833 834 835 837 838 839 839 840 841 841 842 842 842 842 841 839 838 837 837 836 835 834 833 832 831
759 762 771 776 780 786 792 797 801 806 810 813 815 817 818 821 824 828 829 829 830 832 833 835 835 836 836 836 836 837 837 837 837 835 834 833 832 832 831 829 828 826 825
753 756 761 766 771 779 786 791 796 800 805 808 810 813 815 817 819 821 823 824 826 827 828 829 829 830 830 831 831 831 832 832 832 830 829 828 827 826 825 823 821 821 819
748 753 757 765 771 775 779 785 790 795 799 802 805 807 810 812 813 816 818 819 820 821 822 822 823 824 824 825 826 826 826 826 827 826 825 824 821 820 819 818 816 814 812
743 746 756 761 763 769 776 777 782 787 791 795 797 800 802 804 807 810 812 814 816 816 815 816 816 817 817 818 819 820 820 820 821 822 820 817 814 814 813 813 813 811 808
736 745 749 751 756 762 765 772 774 777 782 785 788 791 794 796 799 803 807 808 811 811 810 810 810 810 811 812 812 814 813 813 813 815 814 813 812 811 810 809 808 806 804
731 734 731 741 752 759 757 764 769 771 774 778 782 784 787 789 793 797 800 803 803 805 803 803 803 804 806 806 808 807 808 808 808 810 810 809 808 806 805 803 801 799 797
723 725 726 735 733 744 753 759 764 768 771 773 776 779 781 784 786 789 792 795 796 797 797 798 797 798 798 800 801 802 803 805 806 806 805 804 803 801 799 797 796 795 790
718 720 721 726 735 739 747 753 756 761 763 766 769 772 775 777 779 781 784 787 789 791 792 792 793 794 795 797 798 799 801 802 802 802 801 800 798 797 795 794 792 790 788
715 719 723 728 734 737 742 748 751 755 760 761 763 766 768 772 775 778 779 781 783 785 788 789 791 793 795 795 797 798 799 799 799 799 798 797 796 794 793 792 791 789 788
714 716 719 722 728 733 738 742 748 751 754 757 759 763 765 767 770 774 776 778 780 782 785 787 789 790 792 794 796 796 797 798 798 798 798 797 796 794 793 792 790 788 787
712 710 713 716 721 726 731 736 742 746 749 754 757 760 763 765 768 771 773 775 778 780 783 786 788 790 791 793 795 797 798 798 798 798 797 797 796 796 795 794 793 791 789
707 704 708 713 716 721 726 731 737 740 747 752 755 758 760 764 766 769 771 774 776 778 782 785 787 790 792 792 794 797 798 799 799 798 798 797 797 796 796 796 795 793 790
706 704 705 710 716 720 725 729 735 740 743 746 751 753 757 760 763 767 769 771 772 775 779 783 787 790 792 792 794 796 798 799 799 799 799 798 798 798 797 796 796 794 793
702 703 702 704 714 723 732 734 739 741 744 747 749 752 754 758 763 765 768 771 772 775 778 782 785 788 790 791 793 794 797 798 799 800 799 799 799 798 797 797 796 795 794
698 699 704 707 702 711 722 734 739 743 744 746 749 751 752 756 759 762 767 770 773 775 777 781 784 786 788 789 791 792 794 796 798 799 799 799 799 798 796 796 797 796 795
694 696 701 706 707 706 705 721 729 738 744 744 747 750 751 754 758 760 764 768 771 774 776 779 781 783 785 786 787 789 791 792 794 797 797 797 798 798 796 796 797 796 795
688 691 695 698 698 698 703 707 709 731 743 744 745 747 749 752 755 758 761 762 765 768 771 775 777 779 780 781 783 784 786 789 791 793 794 795 796 796 795 795 796 796 795
683 683 686 691 694 695 699 693 696 721 738 741 742 743 744 748 750 751 754 757 759 762 766 769 771 774 776 777 780 782 784 785 787 788 790 791 793 793 793 792 793 793 793
679 680 681 684 687 687 693 686 694 706 729 734 736 738 740 742 744 745 746 748 752 756 760 763 767 769 773 776 777 779 780 781 782 783 784 786 788 788 788 788 788 789 788
675 677 679 680 683 689 687 689 689 700 718 725 731 734 738 740 739 738 738 742 746 750 756 760 763 765 769 772 773 775 776 777 778 779 781 782 783 784 785 785 785 784 785
672 672 675 677 677 686 687 686 693 699 709 717 725 729 732 735 735 732 734 740 745 747 752 757 760 763 764 767 768 771 772 773 774 775 777 778 779 779 780 780 781 782 782
669 669 671 674 676 678 687 687 691 695 705 712 720 724 724 727 728 727 732 737 740 744 748 751 754 757 761 762 763 766 767 767 768 769 771 772 773 773 773 773 775 775 776
664 664 666 667 670 676 683 683 689 695 702 707 715 718 719 721 722 725 729 733 736 740 744 747 752 754 755 757 759 761 761 761 761 761 762 763 764 765 766 766 766 768 768
662 663 666 666 669 675 676 680 687 691 697 702 707 710 713 715 718 723 726 730 733 738 742 744 747 749 750 752 755 756 756 756 756 757 758 758 758 758 758 757 757 758 759
Wind_Speed
38 37 33 32 31 30 30 31 27 23 22 18 18 20 22 23 23 23 23 22 20 20 18 17 18 16 16 15 15 11 12 13 8 14 15 16 16 17 14 11 13 16 19
37 37 37 32 30 31 31 32 29 27 22 19 18 18 20 22 22 21 23 24 23 22 20 18 19 17 16 17 17 16 16 16 15 14 19 17 14 12 15 20 20 21 21
36 37 38 34 33 34 33 32 30 28 27 24 21 20 22 23 24 22 25 25 25 24 22 21 22 21 21 19 17 18 17 17 17 17 18 18 19 20 19 19 20 21 22
33 36 41 39 37 36 35 33 30 30 27 26 25 22 21 21 23 24 24 25 24 25 25 23 23 24 24 22 21 21 21 21 21 20 19 20 22 22 20 19 21 21 21
32 32 37 32 32 33 36 35 33 30 31 30 27 25 25 25 26 26 25 26 27 27 26 26 24 24 24 25 25 25 24 24 24 23 18 16 17 18 21 20 21 25 26
31 34 26 33 33 34 36 36 35 35 34 31 30 30 31 31 29 27 26 28 29 28 26 26 25 22 25 25 24 25 26 26 25 20 19 17 22 22 24 21 20 14 9
32 25 28 35 28 32 35 34 36 36 35 35 34 32 31 30 29 28 17 17 23 32 25 24 23 23 22 23 20 23 23 23 21 24 22 20 17 17 18 17 15 16 18
28 27 33 35 36 36 30 34 35 34 34 33 31 30 28 28 24 22 16 22 26 29 22 16 21 22 21 19 18 18 15 9 10 11 14 18 20 22 20 20 22 22 23
27 29 35 41 27 27 29 32 33 31 29 29 29 27 25 24 22 21 18 19 22 19 16 16 18 18 20 16 12 10 7 8 8 10 13 16 19 19 19 19 18 16 15
27 30 31 33 31 33 36 35 33 32 32 29 27 23 20 20 18 17 15 15 15 15 14 14 12 9 6 6 5 6 6 6 6 7 7 7 9 9 7 9 9 10 12
25 24 27 33 36 38 34 32 31 28 27 25 24 21 19 17 16 15 14 14 14 13 11 9 8 8 6 5 5 6 6 5 1 2 6 7 9 8 5 6 7 7 9
22 23 26 29 33 32 31 29 26 25 25 22 20 18 17 18 16 14 13 12 11 11 12 11 8 7 5 4 4 5 5 7 8 9 12 13 15 15 12 9 8 9 7
24 24 28 29 30 31 29 28 24 24 20 18 19 21 17 14 13 12 10 9 10 11 11 10 9 8 8 8 9 9 8 11 13 12 12 13 13 11 11 15 15 17 17
23 25 26 24 26 27 26 26 24 22 20 17 17 18 19 16 13 12 10 11 11 11 12 13 13 12 11 13 12 10 9 10 12 12 10 9 9 11 9 9 10 7 14
17 17 17 16 16 15 15 16 19 21 24 23 21 23 22 19 18 14 13 14 15 15 18 18 16 15 14 11 11 8 6 6 7 7 8 8 7 5 5 6 7 8 8
11 11 20 24 17 11 6 7 13 15 18 18 19 22 22 17 16 14 12 11 13 18 19 17 16 15 15 13 10 8 7 6 7 6 4 4 3 3 3 3 3 3 3
14 14 18 20 35 40 6 12 11 10 15 17 16 16 17 17 17 17 16 15 16 17 15 17 16 16 15 14 13 10 9 7 7 8 6 3 1 1 1 1 1 2 0
15 16 18 20 27 27 25 31 23 18 16 16 19 19 19 18 19 21 21 19 20 19 16 16 15 14 13 13 14 13 12 9 9 8 7 6 4 5 3 3 3 3 1
17 18 24 29 28 28 26 30 30 22 21 20 17 18 20 20 21 22 22 23 23 22 20 17 15 14 14 12 12 14 13 12 11 10 7 8 8 8 6 5 6 5 3
20 24 28 30 31 28 26 30 29 24 23 22 20 21 21 21 22 24 24 23 20 19 18 20 19 16 15 14 14 13 14 13 12 12 11 9 9 10 9 7 6 5 5
16 20 27 28 27 25 21 25 26 28 24 24 23 24 24 25 24 24 23 22 20 19 17 17 18 18 15 12 11 13 12 12 13 14 14 14 14 13 13 10 8 8 6
27 20 21 19 21 20 21 24 29 26 26 24 23 21 21 23 19 20 19 19 18 17 16 16 16 16 16 15 15 15 13 13 14 15 15 14 14 13 13 12 11 10 10
18 21 19 21 9 19 20 23 26 28 29 27 23 22 23 22 19 16 13 15 16 16 17 16 15 16 16 16 16 18 18 18 17 16 16 16 16 15 14 13 12 12 12
15 14 25 23 17 20 24 24 24 26 25 21 22 23 23 20 18 16 15 15 15 15 16 16 18 19 18 18 17 19 19 20 20 19 18 18 18 18 18 19 17 17 16
15 11 14 24 27 25 24 23 24 26 25 24 22 21 21 21 18 17 18 17 16 16 15 13 15 19 21 21 18 18 17 17 17 17 18 20 21 20 20 19 20 19 19
17 16 17 16 17 22 23 23 23 23 23 23 20 19 19 21 21 19 18 18 16 17 15 14 14 16 19 21 22 22 21 20 19 19 21 21 22 23 22 21 21 20 21
Wind_Direction
212 217 214 219 221 222 224 222 223 225 232 242 244 238 242 246 246 245 250 251 254 256 257 252 254 258 256 255 250 255 249 241 239 278 288 298 290 286 273 263 276 282 292
210 211 215 216 217 218 220 222 224 225 225 241 252 246 241 241 243 244 247 248 249 252 255 256 256 255 260 256 256 259 263 258 252 260 278 283 281 291 281 276 275 282 283
202 208 213 211 215 218 220 223 226 227 232 238 245 248 241 239 241 246 251 252 249 250 255 260 264 264 264 267 266 268 269 270 264 257 268 273 280 289 288 280 278 277 283
200 201 207 206 214 217 221 223 228 227 228 230 237 243 245 243 245 250 255 260 256 251 252 256 268 257 259 263 265 266 272 269 268 264 263 268 276 282 281 279 281 279 282
197 201 208 206 211 216 220 223 225 226 227 230 233 238 244 248 251 249 254 253 253 252 252 257 265 257 258 261 264 267 269 267 269 265 260 264 264 267 264 279 277 282 284
200 205 200 213 219 218 221 220 223 226 229 230 231 236 242 247 253 258 258 256 252 251 254 260 266 263 259 260 263 264 267 268 267 253 255 251 266 272 284 285 282 282 289
203 203 195 212 207 217 220 224 224 226 229 231 233 235 239 244 248 255 263 275 267 256 251 255 263 264 265 263 268 268 267 265 268 271 270 273 282 284 292 289 283 273 268
196 191 202 202 211 219 217 225 228 226 224 225 228 229 233 241 248 248 237 242 254 255 259 265 260 264 264 267 261 268 271 263 248 253 261 273 277 280 281 280 283 284 282
195 194 199 218 211 205 215 224 227 228 227 229 232 232 236 247 251 250 248 234 242 252 257 259 261 263 263 269 251 248 240 239 257 269 275 276 278 283 284 284 281 277 279
202 200 202 213 209 211 220 222 225 227 230 230 229 231 237 239 235 229 219 219 226 237 247 251 255 241 214 199 210 221 223 244 273 282 289 294 297 298 298 292 296 300 291
210 207 204 206 212 219 224 224 226 227 230 230 228 229 223 222 219 216 208 215 221 214 214 208 191 185 193 208 230 241 239 226 200 63 55 43 34 16 3 335 332 321 307
219 214 219 222 223 225 227 230 228 231 227 226 213 201 199 198 202 208 208 210 204 203 206 204 201 193 203 216 203 188 171 149 120 100 82 68 62 55 48 46 31 30 26
227 216 223 226 223 224 225 228 228 230 208 182 181 182 177 182 187 192 203 215 213 209 206 205 194 183 169 153 136 131 131 130 120 107 90 81 71 65 66 73 59 58 56
226 214 216 210 215 220 222 226 215 204 191 182 176 172 180 179 185 191 196 197 193 185 177 172 170 159 154 142 134 126 125 123 123 112 103 91 83 84 84 59 59 52 55
240 220 199 191 184 179 177 187 201 203 201 187 191 193 181 186 196 195 189 180 175 175 164 160 163 164 160 152 147 143 139 148 144 129 112 93 86 92 84 86 89 75 75
257 198 166 144 118 105 136 171 197 206 210 219 220 207 197 203 183 176 174 173 171 167 163 165 172 177 180 182 184 181 192 202 203 183 148 109 93 88 102 95 114 74 57
249 222 176 159 151 174 183 238 195 205 206 204 204 193 191 183 181 175 169 165 168 171 171 178 182 191 199 208 214 218 221 215 220 218 211 205 280 275 162 145 175 161 9
223 220 193 172 167 169 181 198 192 189 199 189 191 194 190 187 183 181 178 173 174 193 196 201 207 215 223 229 227 230 221 214 212 220 227 231 252 272 263 251 249 229 237
208 206 198 184 188 189 183 179 172 192 211 197 183 187 192 191 189 188 190 191 194 204 215 220 224 231 226 225 224 223 220 224 218 212 218 236 241 244 255 257 252 252 263
212 209 193 191 194 188 188 167 160 190 212 203 196 193 184 182 181 186 193 201 207 217 228 231 230 230 225 227 227 231 225 223 219 221 229 228 230 239 247 251 243 233 244
194 203 195 188 194 198 196 164 164 174 204 208 212 209 205 199 197 199 201 210 220 226 230 229 225 217 225 231 233 225 224 223 223 226 229 232 230 233 237 242 241 235 237
210 217 195 199 206 195 183 170 166 177 199 207 214 214 216 212 207 206 210 218 222 221 220 213 210 213 226 229 223 221 225 226 227 232 236 236 233 237 241 246 247 246 245
198 215 218 220 182 207 184 170 174 184 196 203 205 202 204 213 210 205 208 215 212 202 202 211 224 230 226 224 224 228 236 241 241 243 247 248 246 246 245 247 251 252 253
216 229 202 187 207 197 187 177 178 185 194 195 201 208 209 214 211 203 204 209 205 207 211 214 223 228 234 233 235 240 248 252 254 253 254 255 256 257 253 252 251 253 257
212 194 192 174 185 179 183 172 178 187 197 204 208 214 221 224 222 213 211 211 210 215 220 220 230 232 234 244 245 247 251 249 250 248 245 248 254 257 258 259 256 254 255
216 202 195 170 176 178 173 178 190 192 199 209 218 223 224 226 230 225 216 215 215 219 224 225 231 238 239 244 246 246 243 246 251 252 252 251 253 255 255 256 257 254 259